| time (UTC) | temp F | wind direction | speed MPH | gust MPH | rain 1hr in | rain 24hr in | rain mn in | humidity % | barometer mb |
| 20260504224559 | 85 | 212 | 6.0 | 16.0 | 0.00 | 0.00 | 0.00 | 20 | 997.8 |
| 20260504223101 | 85 | 230 | 5.0 | 14.0 | 0.00 | 0.00 | 0.00 | 18 | 998.2 |
| 20260504221553 | 86 | 240 | 5.0 | 12.0 | 0.00 | 0.00 | 0.00 | 16 | 998.5 |
| 20260504220053 | 86 | 231 | 8.0 | 19.0 | 0.00 | 0.00 | 0.00 | 16 | 998.5 |
| 20260504214606 | 86 | 284 | 8.0 | 16.0 | 0.00 | 0.00 | 0.00 | 16 | 998.7 |
| 20260504213055 | 85 | 257 | 6.0 | 11.0 | 0.00 | 0.00 | 0.00 | 17 | 998.9 |
| 20260504211504 | 85 | 278 | 8.0 | 16.0 | 0.00 | 0.00 | 0.00 | 18 | 999.3 |
| 20260504204558 | 84 | 235 | 9.0 | 14.0 | 0.00 | 0.00 | 0.00 | 20 | 999.8 |
| 20260504203104 | 85 | 207 | 6.0 | 17.0 | 0.00 | 0.00 | 0.00 | 20 | 999.9 |
| 20260504201608 | 85 | 255 | 7.0 | 14.0 | 0.00 | 0.00 | 0.00 | 20 | 1000.1 |
| 20260504200051 | 84 | 231 | 7.0 | 19.0 | 0.00 | 0.00 | 0.00 | 21 | 1000.4 |
| 20260504194552 | 84 | 221 | 8.0 | 16.0 | 0.00 | 0.00 | 0.00 | 21 | 1000.6 |
| 20260504193045 | 83 | 205 | 10.0 | 19.0 | 0.00 | 0.00 | 0.00 | 22 | 1000.8 |
| 20260504191555 | 83 | 332 | 7.0 | 13.0 | 0.00 | 0.00 | 0.00 | 22 | 1001.0 |
| 20260504190046 | 83 | 229 | 8.0 | 15.0 | 0.00 | 0.00 | 0.00 | 23 | 1001.2 |
| 20260504184555 | 83 | 210 | 7.0 | 14.0 | 0.00 | 0.00 | 0.00 | 23 | 1001.5 |
| 20260504183110 | 83 | 251 | 8.0 | 18.0 | 0.00 | 0.00 | 0.00 | 22 | 1001.8 |
| 20260504181538 | 83 | 227 | 8.0 | 15.0 | 0.00 | 0.00 | 0.00 | 23 | 1002.3 |
| 20260504180032 | 83 | 259 | 10.0 | 15.0 | 0.00 | 0.00 | 0.00 | 23 | 1002.6 |
| 20260504174531 | 82 | 278 | 8.0 | 18.0 | 0.00 | 0.00 | 0.00 | 24 | 1002.8 |
| 20260504173031 | 82 | 308 | 8.0 | 16.0 | 0.00 | 0.00 | 0.00 | 24 | 1003.1 |
| 20260504171527 | 81 | 267 | 8.0 | 16.0 | 0.00 | 0.00 | 0.00 | 25 | 1003.2 |
| 20260504120110 | 57 | 215 | 5.0 | 9.0 | 0.00 | 0.00 | 0.00 | 63 | 1003.8 |
| 20260504081517 | 59 | 220 | 5.0 | 13.0 | 0.00 | 0.00 | 0.00 | 55 | 1005.5 |
| 20260504060106 | 61 | 190 | 2.0 | 7.0 | 0.00 | 0.00 | 0.00 | 48 | 1007.2 |
| 20260504044550 | 59 | 199 | 1.0 | 7.0 | 0.00 | 0.00 | 0.00 | 43 | 1007.8 |
| 20260504043045 | 59 | 162 | 0.0 | 2.0 | 0.00 | 0.00 | 0.00 | 42 | 1007.9 |
| 20260504041545 | 60 | 122 | 0.0 | 2.0 | 0.00 | 0.00 | 0.00 | 41 | 1007.9 |
| 20260504040047 | 61 | 122 | 0.0 | 2.0 | 0.00 | 0.00 | 0.00 | 40 | 1007.9 |
| 20260504034544 | 61 | 114 | 0.0 | 2.0 | 0.00 | 0.00 | 0.00 | 38 | 1007.9 |
| 20260504033051 | 62 | 154 | 0.0 | 3.0 | 0.00 | 0.00 | 0.00 | 37 | 1008.1 |
| 20260504031544 | 64 | 124 | 0.0 | 2.0 | 0.00 | 0.00 | 0.00 | 36 | 1007.9 |
| 20260504030046 | 66 | 171 | 1.0 | 4.0 | 0.00 | 0.00 | 0.00 | 34 | 1007.8 |
| 20260504024555 | 66 | 174 | 2.0 | 5.0 | 0.00 | 0.00 | 0.00 | 33 | 1007.7 |
| 20260504023044 | 67 | 225 | 1.0 | 6.0 | 0.00 | 0.00 | 0.00 | 33 | 1007.6 |
| 20260504021550 | 67 | 191 | 1.0 | 4.0 | 0.00 | 0.00 | 0.00 | 32 | 1007.6 |
| 20260504020047 | 69 | 181 | 1.0 | 5.0 | 0.00 | 0.00 | 0.00 | 31 | 1007.5 |
| 20260504014540 | 70 | 196 | 2.0 | 9.0 | 0.00 | 0.00 | 0.00 | 29 | 1007.4 |
| 20260504013047 | 72 | 214 | 4.0 | 11.0 | 0.00 | 0.00 | 0.00 | 28 | 1007.4 |
| 20260504011540 | 74 | 197 | 5.0 | 12.0 | 0.00 | 0.00 | 0.00 | 28 | 1007.4 |
| 20260504010037 | 75 | 239 | 8.0 | 14.0 | 0.00 | 0.00 | 0.00 | 28 | 1007.3 |
| 20260504004542 | 75 | 221 | 7.0 | 15.0 | 0.00 | 0.00 | 0.00 | 25 | 1007.5 |
| 20260504003032 | 76 | 186 | 6.0 | 14.0 | 0.00 | 0.00 | 0.00 | 25 | 1007.7 |
| 20260504001532 | 76 | 203 | 7.0 | 13.0 | 0.00 | 0.00 | 0.00 | 26 | 1007.7 |
| 20260504000030 | 77 | 212 | 7.0 | 16.0 | 0.00 | 0.00 | 0.00 | 25 | 1007.8 |
| 20260503234530 | 77 | 198 | 8.0 | 17.0 | 0.00 | 0.00 | 0.00 | 25 | 1007.8 |
| 20260503233031 | 78 | 206 | 7.0 | 18.0 | 0.00 | 0.00 | 0.00 | 25 | 1007.9 |
| 20260503231528 | 78 | 218 | 10.0 | 19.0 | 0.00 | 0.00 | 0.00 | 25 | 1007.8 |
| 20260503230032 | 79 | 136 | 7.0 | 12.0 | 0.00 | 0.00 | 0.00 | 22 | 1007.9 |